Weather History for Tallahassee, FL

Change the Weather History Date:

Thursday, December 13, 2012

  Actual Average Record
Temperature  
Mean Temperature 51 °F 54 °F  
Max Temperature 53 °F 66 °F 82 °F (1926)
Min Temperature 48 °F 41 °F 10 °F (1962)
Degree Days  
Heating Degree Days 14    
Month to date heating degree days 43  
Since 1 July heating degree days 301  
Cooling Degree Days 0    
Month to date cooling degree days 12  
Year to date cooling degree days 2970  
Moisture  
Dew Point 45 °F    
Average Humidity 76    
Maximum Humidity 86    
Minimum Humidity 66    
Precipitation  
Precipitation 0.00 in 0.13 in 1.78 in (1985)
Month to date precipitation 0.92 1.68  
Year to date precipitation 56.96 57.01  
Sea Level Pressure  
Sea Level Pressure 30.25 in    
Wind  
Wind Speed 8 mph (NNE)    
Max Wind Speed 14 mph    
Max Gust Speed 22 mph    
Visibility 10 miles    
Events      
T = Trace of Precipitation, MM = Missing Value Source: NWS Daily Summary

Daily Weather History Graph

Daily Weather History Graph

Search for Another Location

Airport:

Trip Planner

Search our weather history database for the weather conditions in past years. The results will help you decide how hot, cold, wet, or windy it might be!

Date:

Astronomy

Dec. 13, 2012 Rise Set
Actual Time 7:25 AM EST 5:38 PM EST
Civil Twilight 6:59 AM EST 6:04 PM EST
Nautical Twilight 6:29 AM EST 6:34 PM EST
Astronomical Twilight 5:59 AM EST 7:03 PM EST
Moon 7:34 AM EST (12/13) 6:17 PM EST (12/13)
Length of Visible Light 11h 05m
Length of Day
10h 12m
Waxing Crescent, 0% of the Moon is Illuminated
Dec 13
Waxing Crescent
Dec 20
First Quarter
Dec 28
Full
Jan 4
Last Quarter
Jan 11
New

Hourly Weather History & Observations

Time (EST) Temp. Dew Point Humidity Pressure Visibility Wind Dir Wind Speed Gust Speed Precip Events Conditions
12:53 AM 50.0 °F 46.9 °F 89% 30.17 in 10.0 mi NNE 4.6 mph - N/A   Overcast
1:53 AM 50.0 °F 46.0 °F 86% 30.17 in 10.0 mi North 3.5 mph - N/A   Overcast
2:43 AM 50.0 °F 46.4 °F 87% 30.18 in 10.0 mi North 4.6 mph - N/A   Overcast
2:53 AM 50.0 °F 46.0 °F 86% 30.18 in 10.0 mi NNW 5.8 mph - N/A   Overcast
3:40 AM 50.0 °F 46.4 °F 87% 30.19 in 10.0 mi NNW 6.9 mph - N/A   Overcast
3:53 AM 50.0 °F 46.0 °F 86% 30.19 in 10.0 mi NNW 6.9 mph - N/A   Overcast
4:53 AM 50.0 °F 45.0 °F 83% 30.20 in 10.0 mi NNW 8.1 mph - N/A   Overcast
5:53 AM 48.9 °F 45.0 °F 86% 30.22 in 10.0 mi North 5.8 mph - N/A   Overcast
6:53 AM 48.9 °F 45.0 °F 86% 30.23 in 8.0 mi North 8.1 mph - N/A   Overcast
7:53 AM 48.9 °F 45.0 °F 86% 30.25 in 10.0 mi NNE 8.1 mph - N/A   Overcast
8:53 AM 48.9 °F 44.1 °F 83% 30.27 in 10.0 mi North 12.7 mph - N/A   Overcast
9:53 AM 48.9 °F 44.1 °F 83% 30.29 in 10.0 mi NE 8.1 mph - N/A   Overcast
10:48 AM 50.0 °F 44.6 °F 82% 30.30 in 10.0 mi NE 5.8 mph - N/A   Overcast
10:53 AM 50.0 °F 44.1 °F 80% 30.30 in 10.0 mi NE 8.1 mph - N/A   Overcast
11:53 AM 52.0 °F 44.1 °F 74% 30.30 in 10.0 mi NNE 9.2 mph - N/A   Overcast
12:53 PM 52.0 °F 44.1 °F 74% 30.28 in 10.0 mi NNE 8.1 mph - N/A   Overcast
1:53 PM 52.0 °F 44.1 °F 74% 30.26 in 10.0 mi NE 9.2 mph - N/A   Overcast
2:53 PM 52.0 °F 44.1 °F 74% 30.26 in 10.0 mi NE 11.5 mph - N/A   Overcast
3:53 PM 53.1 °F 44.1 °F 71% 30.26 in 10.0 mi NNE 8.1 mph - N/A   Overcast
4:53 PM 53.1 °F 43.0 °F 69% 30.25 in 10.0 mi NE 10.4 mph - N/A   Overcast
5:53 PM 51.8 °F 42.8 °F 71% 30.25 in 10.0 mi NNE 9.2 mph - N/A   Overcast
6:53 PM 51.1 °F 44.1 °F 77% 30.27 in 10.0 mi ENE 6.9 mph - N/A   Overcast
7:22 PM 51.8 °F 44.6 °F 76% 30.27 in 10.0 mi ENE 9.2 mph - N/A   Overcast
7:53 PM 50.0 °F 42.8 °F 76% 30.28 in 10.0 mi NE 8.1 mph - N/A   Overcast
8:53 PM 48.9 °F 42.1 °F 77% 30.29 in 10.0 mi NE 8.1 mph - N/A   Overcast
9:53 PM 48.0 °F 43.0 °F 83% 30.30 in 10.0 mi NE 9.2 mph - N/A   Overcast
10:53 PM 48.0 °F 43.0 °F 83% 30.31 in 10.0 mi ENE 6.9 mph - N/A   Overcast
11:53 PM 48.0 °F 43.0 °F 83% 30.30 in 10.0 mi NE 8.1 mph - N/A   Overcast